Oregon State Flying Club

The Oregon State Flying Club is a non-profit organization committed to providing safe and inexpensive flying to the Oregon State University and Linn-Benton Community College communities. The Club currently owns three aircraft based at the Corvallis Airport for training, travel, and recreational purposes. Founded in 1952 and incorporated in 1956 the OSFC is one of the oldest continuously active flying clubs in the United States.

News & Announcements

Newsletter

The Pilot - June 2015 edition (pdf)

Corvallis Airport Open House (pdf) - Facebook event

Saturday, August 15, 2015 - pancake breakfast, scenic flights, FAA safety Team seminars

Monthly Board Meeting

Next Meeting: Tuesday, August 11, 6pm, at CVO

Current METAR KCVO

Raw METAR:  KCVO 020355Z 30013KT 10SM CLR 26/11 A2987 RMK AO1

This is a report for Corvallis Municipal Automatic Weather Observing / Reporting System, United States. The report was made 18 minutes ago, at 03:55 UTC. The wind was blowing at a speed of 15.0 miles per hour (6.7 meters per second) from west/northwest (300°). The temperature was 79 °F (26 °C), with a dew-point at 52 °F (11 °C). The temperature felt like 79 °F (26 °C). The atmospheric pressure was 29.87 inHg (1012 hPa). The relative humidity was 39.1%. The sky was clear. The overall visibility was 10.0 miles (16.1 kilometers).